TimeEST,TemperatureF,Dew PointF,Humidity,Sea Level PressureIn,VisibilityMPH,Wind Direction,Wind SpeedMPH,Gust SpeedMPH,PrecipitationIn,Events,Conditions,WindDirDegrees,DateUTC
12:15 AM,53.6,44.6,72,29.92,10.0,SW,13.8,21.9,N/A,,Overcast,230,2011-11-07 05:15:00
12:35 AM,53.6,44.6,72,29.91,10.0,SW,16.1,31.1,N/A,,Overcast,220,2011-11-07 05:35:00
12:55 AM,53.6,44.6,72,29.91,10.0,SW,13.8,24.2,N/A,,Overcast,220,2011-11-07 05:55:00
1:15 AM,53.6,44.6,72,29.92,10.0,SW,11.5,23.0,N/A,,Overcast,230,2011-11-07 06:15:00
1:55 AM,51.8,44.6,76,29.94,10.0,SW,11.5,20.7,N/A,,Overcast,230,2011-11-07 06:55:00
2:15 AM,50.0,42.8,76,29.95,10.0,SW,11.5,19.6,N/A,,Scattered Clouds,230,2011-11-07 07:15:00
2:35 AM,48.2,42.8,82,29.95,10.0,WSW,11.5,17.3,N/A,,Partly Cloudy,240,2011-11-07 07:35:00
2:55 AM,48.2,39.2,71,29.96,10.0,WSW,12.7,18.4,N/A,,Clear,240,2011-11-07 07:55:00
3:15 AM,48.2,39.2,71,29.97,10.0,WSW,10.4,17.3,N/A,,Clear,240,2011-11-07 08:15:00
3:35 AM,48.2,37.4,66,29.98,10.0,WSW,9.2,-,N/A,,Clear,240,2011-11-07 08:35:00
3:55 AM,46.4,35.6,66,29.98,10.0,SW,10.4,18.4,N/A,,Clear,230,2011-11-07 08:55:00
4:15 AM,46.4,33.8,62,29.99,10.0,WSW,11.5,16.1,N/A,,Clear,240,2011-11-07 09:15:00
4:35 AM,46.4,32.0,57,30.00,10.0,WSW,9.2,18.4,N/A,,Clear,240,2011-11-07 09:35:00
4:55 AM,46.4,32.0,57,30.00,10.0,WSW,6.9,-,N/A,,Clear,240,2011-11-07 09:55:00
5:15 AM,44.6,30.2,57,30.01,10.0,SW,6.9,-,N/A,,Clear,230,2011-11-07 10:15:00
6:15 AM,42.8,30.2,61,30.02,10.0,SSW,4.6,-,N/A,,Clear,210,2011-11-07 11:15:00
6:35 AM,42.8,30.2,61,30.02,10.0,SSW,4.6,-,N/A,,Clear,210,2011-11-07 11:35:00
6:55 AM,42.8,30.2,61,30.03,10.0,SSW,4.6,-,N/A,,Clear,200,2011-11-07 11:55:00
7:15 AM,42.8,30.2,61,30.03,10.0,SSW,5.8,-,N/A,,Clear,210,2011-11-07 12:15:00
7:35 AM,42.8,30.2,61,30.04,10.0,SSW,5.8,-,N/A,,Clear,200,2011-11-07 12:35:00
7:55 AM,42.8,30.2,61,30.04,10.0,SSW,5.8,-,N/A,,Clear,210,2011-11-07 12:55:00
8:15 AM,44.6,32.0,61,30.04,10.0,SSW,5.8,-,N/A,,Clear,210,2011-11-07 13:15:00
8:35 AM,44.6,32.0,61,30.04,10.0,SSW,8.1,-,N/A,,Clear,210,2011-11-07 13:35:00
8:55 AM,46.4,32.0,57,30.05,10.0,SSW,8.1,-,N/A,,Clear,200,2011-11-07 13:55:00
9:15 AM,46.4,33.8,62,30.06,10.0,SW,9.2,-,N/A,,Clear,220,2011-11-07 14:15:00
9:35 AM,48.2,33.8,58,30.06,10.0,SW,10.4,17.3,N/A,,Clear,220,2011-11-07 14:35:00
9:55 AM,50.0,33.8,54,30.06,10.0,SW,10.4,23.0,N/A,,Clear,220,2011-11-07 14:55:00
10:55 AM,51.8,32.0,47,30.06,10.0,SW,18.4,23.0,N/A,,Clear,220,2011-11-07 15:55:00
11:15 AM,51.8,30.2,44,30.06,10.0,SW,16.1,23.0,N/A,,Clear,230,2011-11-07 16:15:00
11:35 AM,53.6,32.0,44,30.06,10.0,SW,18.4,24.2,N/A,,Clear,220,2011-11-07 16:35:00
11:55 AM,53.6,32.0,44,30.06,10.0,SW,13.8,27.6,N/A,,Clear,220,2011-11-07 16:55:00
12:15 PM,53.6,30.2,41,30.04,10.0,SW,19.6,28.8,N/A,,Clear,220,2011-11-07 17:15:00
12:35 PM,53.6,30.2,41,30.04,10.0,WSW,16.1,28.8,N/A,,Clear,240,2011-11-07 17:35:00
12:55 PM,53.6,30.2,41,30.04,10.0,SW,15.0,25.3,N/A,,Clear,220,2011-11-07 17:55:00
1:15 PM,53.6,30.2,41,30.04,10.0,SW,12.7,24.2,N/A,,Clear,220,2011-11-07 18:15:00
1:35 PM,53.6,28.4,38,30.04,10.0,SW,20.7,31.1,N/A,,Clear,230,2011-11-07 18:35:00
1:55 PM,53.6,26.6,35,30.04,10.0,WSW,19.6,32.2,N/A,,Clear,240,2011-11-07 18:55:00
2:15 PM,53.6,24.8,33,30.04,10.0,WSW,19.6,34.5,N/A,,Clear,240,2011-11-07 19:15:00
2:35 PM,53.6,26.6,35,30.04,10.0,WSW,23.0,28.8,N/A,,Clear,240,2011-11-07 19:35:00
3:15 PM,51.8,26.6,38,30.05,10.0,WSW,18.4,26.5,N/A,,Clear,250,2011-11-07 20:15:00
3:35 PM,51.8,26.6,38,30.06,10.0,WSW,19.6,31.1,N/A,,Clear,250,2011-11-07 20:35:00
3:55 PM,51.8,26.6,38,30.07,10.0,WSW,18.4,26.5,N/A,,Clear,240,2011-11-07 20:55:00
4:15 PM,50.0,26.6,40,30.08,10.0,WSW,12.7,23.0,N/A,,Clear,240,2011-11-07 21:15:00
4:35 PM,50.0,28.4,43,30.08,10.0,WSW,15.0,24.2,N/A,,Clear,240,2011-11-07 21:35:00
4:55 PM,48.2,28.4,46,30.07,10.0,WSW,16.1,21.9,N/A,,Clear,250,2011-11-07 21:55:00
5:15 PM,48.2,28.4,46,30.08,10.0,WSW,12.7,18.4,N/A,,Clear,250,2011-11-07 22:15:00
5:35 PM,46.4,28.4,50,30.08,10.0,WSW,8.1,-,N/A,,Clear,240,2011-11-07 22:35:00
6:35 PM,42.8,30.2,61,30.12,10.0,NW,8.1,-,N/A,,Clear,320,2011-11-07 23:35:00
6:55 PM,41.0,30.2,65,30.13,10.0,NNW,8.1,-,N/A,,Clear,330,2011-11-07 23:55:00
7:15 PM,39.2,30.2,70,30.13,10.0,NW,9.2,-,N/A,,Clear,320,2011-11-08 00:15:00
7:35 PM,39.2,30.2,70,30.14,10.0,NW,6.9,-,N/A,,Clear,320,2011-11-08 00:35:00
8:15 PM,39.2,30.2,70,30.15,10.0,WNW,5.8,-,N/A,,Clear,300,2011-11-08 01:15:00
8:55 PM,37.4,30.2,75,30.16,10.0,West,4.6,-,N/A,,Clear,280,2011-11-08 01:55:00
9:15 PM,37.4,30.2,75,30.18,10.0,West,4.6,-,N/A,,Clear,260,2011-11-08 02:15:00
9:35 PM,35.6,30.2,81,30.17,10.0,WSW,4.6,-,N/A,,Clear,250,2011-11-08 02:35:00
10:15 PM,35.6,28.4,75,30.18,10.0,West,6.9,-,N/A,,Clear,260,2011-11-08 03:15:00
10:35 PM,35.6,28.4,75,30.18,10.0,West,5.8,-,N/A,,Clear,260,2011-11-08 03:35:00
10:55 PM,33.8,28.4,81,30.18,10.0,West,4.6,-,N/A,,Clear,260,2011-11-08 03:55:00
11:15 PM,33.8,28.4,81,30.18,10.0,West,5.8,-,N/A,,Clear,270,2011-11-08 04:15:00
11:35 PM,33.8,28.4,81,30.18,10.0,West,5.8,-,N/A,,Clear,270,2011-11-08 04:35:00
11:55 PM,33.8,28.4,81,30.19,10.0,West,5.8,-,N/A,,Clear,260,2011-11-08 04:55:00